TimeCDT,TemperatureF,Dew PointF,Humidity,Sea Level PressureIn,VisibilityMPH,Wind Direction,Wind SpeedMPH,Gust SpeedMPH,PrecipitationIn,Events,Conditions,WindDirDegrees,DateUTC
12:15 AM,45.0,41.4,87,30.07,10.0,WNW,16.1,-,N/A,,Overcast,300,2013-10-16 05:15:00
12:35 AM,44.6,41.5,89,30.07,10.0,WNW,17.3,-,N/A,,Overcast,300,2013-10-16 05:35:00
12:55 AM,44.8,41.4,88,30.06,10.0,WNW,13.8,-,N/A,,Overcast,300,2013-10-16 05:55:00
1:15 AM,44.6,41.5,89,30.06,10.0,WNW,13.8,-,N/A,,Overcast,290,2013-10-16 06:15:00
1:35 AM,44.6,41.0,87,30.06,10.0,WNW,13.8,-,N/A,,Overcast,300,2013-10-16 06:35:00
1:55 AM,44.8,40.6,85,30.06,10.0,WNW,12.7,-,N/A,,Overcast,290,2013-10-16 06:55:00
2:15 AM,44.8,40.5,85,30.07,10.0,WNW,12.7,17.3,N/A,,Overcast,290,2013-10-16 07:15:00
2:35 AM,44.8,40.1,84,30.07,10.0,WNW,12.7,-,N/A,,Overcast,300,2013-10-16 07:35:00
2:55 AM,44.6,40.1,84,30.07,10.0,West,12.7,-,N/A,,Overcast,280,2013-10-16 07:55:00
3:15 AM,44.6,40.1,84,30.07,10.0,West,13.8,-,N/A,,Overcast,280,2013-10-16 08:15:00
3:35 AM,44.6,40.1,84,30.06,10.0,WNW,11.5,-,N/A,,Overcast,290,2013-10-16 08:35:00
3:55 AM,44.6,40.1,84,30.06,10.0,West,10.4,-,N/A,,Overcast,280,2013-10-16 08:55:00
4:15 AM,44.6,40.3,85,30.06,10.0,WNW,9.2,-,N/A,,Overcast,290,2013-10-16 09:15:00
4:35 AM,44.6,40.1,84,30.06,10.0,WNW,11.5,-,N/A,,Overcast,290,2013-10-16 09:35:00
4:55 AM,44.6,40.1,84,30.05,10.0,WNW,10.4,-,N/A,,Overcast,290,2013-10-16 09:55:00
5:15 AM,44.6,40.1,84,30.06,10.0,WNW,10.4,-,N/A,,Overcast,290,2013-10-16 10:15:00
5:35 AM,44.6,39.7,83,30.05,10.0,WNW,8.1,-,N/A,,Overcast,290,2013-10-16 10:35:00
5:55 AM,44.4,40.1,85,30.06,10.0,West,8.1,-,N/A,,Overcast,280,2013-10-16 10:55:00
6:15 AM,44.2,40.1,85,30.06,10.0,West,8.1,-,N/A,,Overcast,280,2013-10-16 11:15:00
6:35 AM,44.4,39.9,84,30.07,10.0,West,9.2,-,N/A,,Overcast,280,2013-10-16 11:35:00
6:55 AM,44.2,40.1,85,30.07,10.0,West,6.9,-,N/A,,Overcast,280,2013-10-16 11:55:00
7:15 AM,44.1,40.3,87,30.06,10.0,WNW,8.1,-,N/A,,Overcast,290,2013-10-16 12:15:00
7:35 AM,43.9,40.1,87,30.06,10.0,West,8.1,-,N/A,,Overcast,280,2013-10-16 12:35:00
7:55 AM,43.7,40.1,87,30.06,10.0,West,6.9,-,N/A,,Mostly Cloudy,270,2013-10-16 12:55:00
8:15 AM,43.7,40.3,88,30.07,10.0,West,9.2,-,N/A,,Mostly Cloudy,270,2013-10-16 13:15:00
8:35 AM,43.9,40.5,88,30.07,10.0,West,9.2,-,N/A,,Mostly Cloudy,270,2013-10-16 13:35:00
8:55 AM,44.4,40.6,87,30.07,10.0,West,9.2,-,N/A,,Mostly Cloudy,280,2013-10-16 13:55:00
9:15 AM,45.0,41.2,87,30.07,10.0,WNW,9.2,-,N/A,,Scattered Clouds,290,2013-10-16 14:15:00
9:35 AM,45.7,40.6,83,30.07,10.0,WNW,12.7,16.1,N/A,,Mostly Cloudy,290,2013-10-16 14:35:00
9:55 AM,46.4,40.3,79,30.08,10.0,WNW,11.5,-,N/A,,Mostly Cloudy,290,2013-10-16 14:55:00
10:15 AM,47.3,39.6,74,30.09,10.0,WNW,12.7,-,N/A,,Mostly Cloudy,300,2013-10-16 15:15:00
10:35 AM,47.3,39.2,73,30.08,10.0,WNW,11.5,-,N/A,,Overcast,300,2013-10-16 15:35:00
10:55 AM,47.5,39.4,73,30.08,10.0,WNW,12.7,-,N/A,,Overcast,300,2013-10-16 15:55:00
11:15 AM,48.2,38.8,70,30.08,10.0,WNW,11.5,-,N/A,,Overcast,300,2013-10-16 16:15:00
11:35 AM,50.2,39.0,66,30.08,10.0,WNW,12.7,-,N/A,,Scattered Clouds,290,2013-10-16 16:35:00
11:55 AM,51.1,36.7,58,30.07,10.0,NW,9.2,-,N/A,,Clear,310,2013-10-16 16:55:00
12:15 PM,52.3,36.9,56,30.07,10.0,West,10.4,-,N/A,,Clear,280,2013-10-16 17:15:00
12:35 PM,53.2,34.2,48,30.06,10.0,NNW,11.5,-,N/A,,Clear,330,2013-10-16 17:35:00
12:55 PM,53.6,33.3,46,30.06,10.0,WNW,10.4,17.3,N/A,,Clear,290,2013-10-16 17:55:00
1:15 PM,54.5,34.2,46,30.05,10.0,NW,6.9,-,N/A,,Clear,310,2013-10-16 18:15:00
1:35 PM,55.2,33.6,44,30.04,10.0,NW,8.1,-,N/A,,Clear,310,2013-10-16 18:35:00
1:55 PM,55.6,33.4,43,30.03,10.0,NW,6.9,-,N/A,,Clear,310,2013-10-16 18:55:00
2:15 PM,56.1,33.3,42,30.02,10.0,NW,8.1,-,N/A,,Clear,320,2013-10-16 19:15:00
2:35 PM,57.2,35.1,43,30.01,10.0,WNW,9.2,-,N/A,,Clear,300,2013-10-16 19:35:00
2:55 PM,56.8,32.7,40,30.01,10.0,WNW,9.2,-,N/A,,Clear,300,2013-10-16 19:55:00
3:15 PM,57.0,33.3,41,30.00,10.0,NNW,6.9,-,N/A,,Clear,330,2013-10-16 20:15:00
3:35 PM,57.0,33.3,41,30.00,10.0,WNW,4.6,-,N/A,,Clear,300,2013-10-16 20:35:00
3:55 PM,57.4,33.3,40,29.99,10.0,West,6.9,-,N/A,,Clear,280,2013-10-16 20:55:00
4:15 PM,57.2,32.9,40,29.99,10.0,NW,8.1,-,N/A,,Clear,310,2013-10-16 21:15:00
4:35 PM,57.4,33.4,40,29.98,10.0,NNW,4.6,-,N/A,,Clear,340,2013-10-16 21:35:00
4:55 PM,57.2,33.4,41,29.98,10.0,NW,8.1,18.4,N/A,,Clear,320,2013-10-16 21:55:00
5:15 PM,56.8,32.2,39,29.98,10.0,NW,5.8,-,N/A,,Clear,320,2013-10-16 22:15:00
5:35 PM,56.3,32.4,40,29.97,10.0,WNW,6.9,-,N/A,,Clear,300,2013-10-16 22:35:00
5:55 PM,55.2,34.7,46,29.97,10.0,NW,4.6,-,N/A,,Clear,320,2013-10-16 22:55:00
6:15 PM,53.8,36.0,51,29.97,10.0,Calm,Calm,-,N/A,,Clear,0,2013-10-16 23:15:00
6:35 PM,53.1,35.6,52,29.98,10.0,Calm,Calm,-,N/A,,Clear,0,2013-10-16 23:35:00
6:55 PM,50.4,36.9,60,29.98,10.0,Calm,Calm,-,N/A,,Clear,0,2013-10-16 23:55:00
7:15 PM,48.7,37.8,66,29.98,10.0,Calm,Calm,-,N/A,,Clear,0,2013-10-17 00:15:00
7:35 PM,46.4,40.1,79,29.98,10.0,Calm,Calm,-,N/A,,Clear,0,2013-10-17 00:35:00
7:55 PM,44.6,40.5,85,29.98,10.0,Calm,Calm,-,N/A,,Clear,0,2013-10-17 00:55:00
8:15 PM,44.1,40.1,86,29.97,10.0,Calm,Calm,-,N/A,,Clear,0,2013-10-17 01:15:00
8:35 PM,45.3,41.4,86,29.97,10.0,Calm,Calm,-,N/A,,Clear,0,2013-10-17 01:35:00
8:55 PM,45.1,42.8,91,29.97,10.0,Calm,Calm,-,N/A,,Clear,0,2013-10-17 01:55:00
9:15 PM,46.0,42.6,88,29.97,10.0,Calm,Calm,-,N/A,,Clear,0,2013-10-17 02:15:00
9:35 PM,46.6,41.4,82,29.96,10.0,Calm,Calm,-,N/A,,Clear,0,2013-10-17 02:35:00
9:55 PM,45.9,41.5,85,29.96,10.0,Calm,Calm,-,N/A,,Clear,0,2013-10-17 02:55:00
10:15 PM,45.9,41.4,84,29.96,10.0,Calm,Calm,-,N/A,,Clear,0,2013-10-17 03:15:00
10:35 PM,44.4,41.0,88,29.96,10.0,Calm,Calm,-,N/A,,Clear,0,2013-10-17 03:35:00
10:55 PM,44.2,41.7,91,29.96,10.0,Calm,Calm,-,N/A,,Clear,0,2013-10-17 03:55:00
11:15 PM,43.7,41.0,90,29.96,10.0,Calm,Calm,-,N/A,,Clear,0,2013-10-17 04:15:00
11:35 PM,43.2,40.8,91,29.96,10.0,Calm,Calm,-,N/A,,Clear,0,2013-10-17 04:35:00
11:55 PM,41.2,40.1,96,29.96,10.0,Calm,Calm,-,N/A,,Clear,0,2013-10-17 04:55:00